sat.trackr.live / text

‹ back to catalog

STARLINK-11661 [DTC]

NORAD 63676 · 2025-085N

PAYLOAD ACTIVE UNKNOWN

§ Identity

Operator
Country
US
Launch date
2025-04-28
Launch site
AFETR
Launch vehicle
Mass (kg)
RCS (m²)

Purposes: comms

External: N2YO · Heavens-Above · Gunter

§ Orbital elements

Epoch: 2026-09-20T19:38:01.300704Z

Period
91.67 min
Inclination
42.9998°
Eccentricity
0.0001479
Mean motion
15.70878044 rev/d
Perigee alt
355.4 km
Apogee alt
357.4 km
Semi-major
6,734.5 km
B*
6.9870e-4
RAAN
181.9595°
Arg perigee
277.6239°
Mean anomaly
82.4461°
Rev number
8,158

§ Raw data

STARLINK-11661 [DTC]1 63676U 25085N   26263.81807061  .00090328  00000+0  69870-3 0  99922 63676  42.9998 181.9595 0001479 277.6239  82.4461 15.70878044 81587

JSON: /api/v1/satellites/63676 · /tle

For live sub-satellite position, see the globe view (requires WebGL).

§ Visibility from observer

Set your observer location to see the next 7 days of passes ≥ 10°. The values pass through the URL so the page stays shareable.

No JS? Fill the form by hand. The geolocation button needs JavaScript.